DateTimeUTC,F1_A11,F1_S11,BsB_S11,BsG_S11,BsR_S11,BbsB_S11,BbsG_S11,BbsR_S11,BaB_A11,BaG_A11,BaR_A11,Tu_S11,T_S11,Uu_S11,U_S11,P_S11,T1_A11
2021-08-03T20:00:00Z,04000200,20000000,,,,,,,-000.20,-000.30,0000.19,21.6,28.4,05.3,03.5,0672.5,32.4
2021-08-03T20:01:00Z,04000200,20000000,,,,,,,0000.04,-000.02,0000.06,21.6,28.4,05.3,03.5,0672.5,32.4
2021-08-03T20:02:00Z,04000200,20000000,,,,,,,-000.05,-000.21,-000.24,21.6,28.4,05.3,03.5,0672.5,32.4
2021-08-03T20:03:00Z,04000200,60000000,,,,,,,0000.80,0000.93,0000.63,21.6,28.4,05.3,03.5,0672.5,32.4
2021-08-03T20:04:00Z,04000200,40000000,0003.86,0002.50,0001.99,0000.69,0000.70,0000.64,0000.98,0000.98,0000.59,21.7,28.2,05.2,03.5,0673.4,32.4
2021-08-03T20:05:00Z,04000200,00000000,0004.23,0002.57,0002.07,-000.26,0000.51,0000.47,0001.24,0000.80,0000.88,21.8,28.1,05.2,03.5,0673.5,32.4
2021-08-03T20:06:00Z,04000200,00000000,0003.78,0003.15,0001.91,-000.22,0000.51,0000.31,0001.22,0001.73,0000.90,21.8,28.1,05.2,03.6,0673.5,32.4
2021-08-03T20:07:00Z,04000200,00000000,0004.85,0002.80,0001.64,0000.27,0000.42,0000.26,0000.94,0000.77,0000.86,21.8,28.1,05.2,03.6,0673.5,32.4
2021-08-03T20:08:00Z,04000200,00000000,0004.26,0002.70,0001.82,0000.28,0000.32,0000.33,0001.34,0001.13,0000.31,21.8,28.1,05.3,03.6,0673.5,32.4
2021-08-03T20:09:00Z,04000200,00000000,0004.49,0002.73,0001.69,-000.00,0000.58,0000.58,0000.88,0000.71,0000.86,21.7,28.1,05.3,03.6,0673.4,32.4
2021-08-03T20:10:00Z,04000200,00000000,0003.83,0002.65,0001.77,0000.17,0000.23,0000.64,0001.30,0000.89,0000.96,21.7,28.1,05.3,03.6,0673.4,32.4
2021-08-03T20:11:00Z,04000200,00000000,0004.53,0003.09,0002.18,0000.29,0000.44,0000.91,0000.63,0000.88,0000.84,21.7,28.1,05.3,03.6,0673.4,32.4
2021-08-03T20:12:00Z,04000200,00000000,0004.01,0002.70,0001.92,0000.74,0000.44,0000.49,0001.13,0000.79,0000.41,21.7,28.1,05.3,03.6,0673.4,32.4
2021-08-03T20:13:00Z,04000200,00000000,0003.92,0002.64,0001.86,0000.30,0000.22,0000.58,0001.31,0000.93,0000.68,21.7,28.1,05.2,03.6,0673.4,32.4
2021-08-03T20:14:00Z,04000200,00000000,0004.32,0002.63,0001.86,0000.73,0000.20,0000.33,0000.67,0001.36,0000.69,21.7,28.1,05.3,03.6,0673.5,32.4
2021-08-03T20:15:00Z,04000200,00000000,0005.30,0002.37,0001.85,-000.01,0000.32,0000.63,0001.36,0000.90,0001.11,21.7,28.1,05.4,03.7,0673.5,32.4
2021-08-03T20:16:00Z,04000200,00000000,0004.73,0002.52,0001.98,0000.88,0000.28,0000.33,0000.99,0000.96,0000.95,21.7,28.1,05.4,03.7,0673.5,32.4
2021-08-03T20:17:00Z,04000200,00000000,0003.40,0002.62,0001.74,0000.74,0000.43,0000.45,0001.28,0000.90,0000.25,21.7,28.1,05.3,03.7,0673.5,32.3
2021-08-03T20:18:00Z,04000200,00000000,0004.39,0002.85,0001.52,0000.64,0000.21,0000.31,0000.99,0000.86,0000.85,21.7,28.0,05.3,03.6,0673.5,32.3
2021-08-03T20:19:00Z,04000200,00000000,0003.96,0002.83,0001.70,0000.40,0000.49,0000.53,0000.98,0001.08,0000.52,21.7,28.0,05.2,03.6,0673.5,32.3
2021-08-03T20:20:00Z,04000200,00000000,0004.40,0002.67,0001.93,0000.56,0000.45,0000.58,0000.92,0001.15,0000.71,21.7,28.0,05.2,03.6,0673.5,32.3
2021-08-03T20:21:00Z,04000200,00000000,0004.37,0003.25,0001.78,0000.40,0000.39,0000.36,0001.26,0001.02,0001.06,21.7,28.0,05.2,03.5,0673.4,32.3
2021-08-03T20:22:00Z,04000200,00000000,0004.12,0002.91,0001.54,0000.07,0000.51,0000.13,0001.32,0000.72,0000.59,21.7,28.0,05.2,03.5,0673.4,32.3
2021-08-03T20:23:00Z,04000200,00000000,0004.75,0002.70,0001.59,0000.29,0000.64,0000.24,0000.93,0001.06,0000.77,21.6,28.0,05.1,03.5,0673.4,32.3
2021-08-03T20:24:00Z,04000200,00000000,0004.32,0003.00,0001.87,0000.69,0000.49,0000.58,0001.09,0000.96,0000.88,21.7,28.0,05.3,03.6,0673.4,32.3
2021-08-03T20:25:00Z,04000200,00000000,0004.23,0002.89,0001.93,0000.77,0000.34,0000.26,0000.87,0000.91,0000.62,21.6,28.0,05.2,03.6,0673.5,32.3
2021-08-03T20:26:00Z,04000200,00000000,0004.15,0003.04,0002.01,0000.66,0000.89,0000.65,0001.42,0001.29,0000.83,21.6,28.0,05.1,03.5,0673.4,32.3
2021-08-03T20:27:00Z,04000200,00000000,0004.42,0003.01,0001.85,0000.37,0000.21,0000.27,0001.28,0001.17,0001.06,21.6,28.0,05.2,03.6,0673.5,32.3
2021-08-03T20:28:00Z,04000200,00000000,0004.44,0002.87,0001.91,0000.90,0000.58,0000.61,0001.22,0000.92,0001.05,21.6,28.0,05.2,03.6,0673.5,32.3
2021-08-03T20:29:00Z,04000200,00000000,0005.21,0003.30,0002.17,0000.32,0000.25,0000.45,0001.14,0000.96,0000.20,21.6,28.0,05.3,03.6,0673.4,32.3
2021-08-03T20:30:00Z,04000200,00000000,0005.55,0003.55,0002.33,0000.82,0000.43,0000.62,0001.14,0000.91,0001.00,21.6,28.0,05.1,03.5,0673.4,32.3
2021-08-03T20:31:00Z,04000200,00000000,0005.61,0003.75,0002.20,0001.01,0000.27,0000.59,0000.92,0001.33,0000.62,21.6,27.9,05.1,03.5,0673.4,32.3
2021-08-03T20:32:00Z,04000200,00000000,0005.09,0003.98,0002.25,0000.95,0000.52,0000.09,0001.47,0000.92,0000.71,21.6,27.9,05.0,03.4,0673.4,32.3
2021-08-03T20:33:00Z,04000200,00000000,0005.41,0003.76,0002.10,0000.39,0000.22,0000.53,0000.95,0001.39,0001.03,21.6,27.9,04.9,03.3,0673.4,32.3
2021-08-03T20:34:00Z,04000200,00000000,0005.10,0003.57,0002.28,0000.45,0000.42,0000.17,0001.28,0000.51,0000.57,21.6,27.9,04.8,03.3,0673.4,32.3
2021-08-03T20:35:00Z,04000200,00000000,0006.43,0004.21,0002.81,-000.16,0000.52,0000.51,0000.93,0001.08,0001.09,21.6,28.0,04.6,03.2,0673.4,32.3
2021-08-03T20:36:00Z,04000200,00000000,0006.04,0004.06,0002.70,0000.33,0000.66,0000.92,0001.59,0001.71,0000.58,21.6,28.0,04.6,03.2,0673.4,32.3
2021-08-03T20:37:00Z,04000200,00000000,0006.36,0003.86,0002.54,0000.57,0000.66,0000.37,0001.29,0000.93,0000.88,21.6,27.9,04.6,03.2,0673.5,32.2
2021-08-03T20:38:00Z,04000200,00000000,0006.26,0003.97,0002.33,0000.46,0000.44,0000.24,0000.92,0000.84,0000.81,21.6,27.9,04.6,03.1,0673.5,32.3
2021-08-03T20:39:00Z,04000200,00000000,0006.51,0004.19,0002.77,0000.30,0000.74,0000.55,0001.37,0001.09,0000.65,21.6,28.0,04.4,03.0,0673.5,32.3
2021-08-03T20:40:00Z,04000200,00000000,0006.00,0004.44,0002.72,0000.69,0000.82,0000.66,0001.81,0001.57,0001.02,21.6,28.0,04.4,03.0,0673.5,32.2
2021-08-03T20:41:00Z,04000200,00000000,0006.34,0004.35,0002.80,-000.06,0000.79,0000.44,0001.17,0001.42,0000.97,21.6,27.9,04.4,03.0,0673.5,32.2
2021-08-03T20:42:00Z,04000200,00000000,0006.29,0004.34,0002.43,0000.96,0000.58,0000.54,0002.04,0001.55,0001.80,21.6,27.9,04.5,03.1,0673.5,32.2
2021-08-03T20:43:00Z,04000200,00000000,0006.83,0004.16,0002.80,0000.55,0000.61,0000.33,0000.91,0000.84,0000.41,21.6,27.9,04.5,03.1,0673.5,32.2
2021-08-03T20:44:00Z,04000200,00000000,0006.81,0004.83,0002.84,-000.03,0000.57,0000.22,0001.35,0000.96,0000.39,21.6,27.9,04.2,02.9,0673.5,32.2
2021-08-03T20:45:00Z,04000200,00000000,0007.37,0004.62,0002.68,0000.72,0000.71,0000.62,0001.35,0001.27,0001.04,21.6,27.9,04.1,02.8,0673.5,32.2
2021-08-03T20:46:00Z,04000200,00000000,0006.40,0004.84,0003.23,0000.76,0000.34,0000.86,0001.73,0001.84,0001.27,21.6,27.9,04.1,02.8,0673.4,32.2
2021-08-03T20:47:00Z,04000200,00000000,0006.56,0004.52,0002.78,0000.44,0000.71,0000.76,0001.72,0001.62,0001.47,21.6,27.9,04.2,02.9,0673.5,32.2
2021-08-03T20:48:00Z,04000200,00000000,0007.14,0004.16,0002.47,0000.46,0000.38,0000.43,0001.60,0001.58,0000.91,21.6,27.9,04.3,02.9,0673.4,32.2
2021-08-03T20:49:00Z,04000200,00000000,0006.03,0004.18,0003.04,0000.93,0000.38,0000.94,0001.96,0001.58,0001.21,21.6,27.9,04.5,03.1,0673.5,32.2
2021-08-03T20:50:00Z,04000200,00000000,0005.59,0004.20,0002.85,0000.75,0000.47,0000.55,0001.71,0001.40,0001.98,21.5,27.8,04.5,03.1,0673.5,32.2
2021-08-03T20:51:00Z,04000200,00000000,0006.40,0004.20,0003.11,0000.06,0000.33,0000.92,0001.16,0001.34,0000.25,21.6,27.9,04.5,03.1,0673.5,32.2
2021-08-03T20:52:00Z,04000200,00000000,0006.05,0003.86,0002.78,0000.41,0000.45,0000.76,0001.58,0001.62,0001.42,21.5,27.9,04.5,03.1,0673.5,32.2
2021-08-03T20:53:00Z,04000200,00000000,0005.01,0004.06,0002.91,0000.29,0000.64,0000.95,0001.64,0001.68,0001.06,21.5,27.9,04.8,03.3,0673.4,32.2
2021-08-03T20:54:00Z,04000200,00000000,0005.91,0004.27,0002.02,-000.04,0000.24,0000.14,0001.51,0001.02,0001.40,21.5,27.8,04.8,03.3,0673.4,32.2
2021-08-03T20:55:00Z,04000200,00000000,0005.68,0004.13,0002.51,0000.57,0000.47,0000.56,0001.64,0001.11,0000.96,21.5,27.8,04.9,03.3,0673.4,32.2
2021-08-03T20:56:00Z,04000200,00000000,0005.04,0003.46,0002.61,0000.81,0000.46,0000.61,0001.15,0001.50,0000.83,21.5,27.8,04.9,03.3,0673.4,32.2
2021-08-03T20:57:00Z,04000200,40000000,,,,,,,0000.57,0000.25,0000.28,21.5,27.9,04.8,03.3,0673.3,32.2
2021-08-03T20:58:00Z,04000200,60000000,,,,,,,-000.10,-000.11,0000.19,21.3,28.0,05.0,03.3,0672.4,32.2
2021-08-03T20:59:00Z,04000200,20000000,,,,,,,-000.51,-000.18,-000.86,21.2,28.1,04.9,03.2,0672.4,32.2
